LQSAT
1 40958U 15057A   20002.90658189 -.00000010 +00000-0 +60853-5 0  9993
2 40958 097.8767 071.5027 0017324 328.8842 031.1339 14.73102391227996
CHUBUSAT 2
1 41338U 16012B   20003.16957109  .00000253  00000-0  12925-4 0  9995
2 41338  31.0043 323.3551 0013818 268.9088  90.9964 15.00226340212742
CHUBUSAT 3
1 41339U 16012C   20003.31577665  .00000226  00000-0  10734-4 0  9994
2 41339  31.0141 320.2675 0013714 278.9805  80.9279 15.00396054212768
OUFTI-1
1 41458U 16025C   20003.24521782  .00000573  00000-0  32860-4 0  9990
2 41458  98.0994 105.2143 0165966  49.6110 311.9466 15.06353186202454
E-STAR-2
1 41459U 16025D   20003.51044921  .00000281  00000-0  18501-4 0  9998
2 41459  98.0992 105.0337 0167573  50.4074 311.1804 15.05953723202462
AAUSAT 4
1 41460U 16025E   20003.55798103  .00001319  00000-0  68743-4 0  9998
2 41460  98.0970 106.8642 0156532  40.9164 320.3708 15.08050540202637
NUSAT 1
1 41557U 16033B   20003.48181114  .00000802  00000-0  32405-4 0  9996
2 41557  97.4112  94.8027 0012511 320.5692  39.4636 15.27634872200430
BEESAT 4
1 41619U 16040W   20002.89206550 +.00000966 +00000-0 +43237-4 0  9995
2 41619 097.3438 066.1916 0012428 052.3521 307.8841 15.23580287184039
PRATHAM
1 41783U 16059A   20003.41795380  .00000029  00000-0  14793-4 0  9995
2 41783  98.0423  63.3300 0034777 118.1116 242.3609 14.63029784174601
ALSAT 1N
1 41789U 16059G   20003.44165817  .00000078  00000-0  23619-4 0  9991
2 41789  98.0454  65.7913 0029635 106.7499 253.6961 14.64287715174732
NAYIF 1
1 42017U 17008BX  20002.82560965 +.00001099 +00000-0 +45526-4 0  9990
2 42017 097.3819 072.6791 0006224 175.7638 184.3654 15.26023655160133
MAX VALIER SAT
1 42778U 17036P   20002.92704590 +.00000625 +00000-0 +30072-4 0  9994
2 42778 097.3298 060.9655 0010840 244.2449 115.7669 15.22328804140398
